Погода в Швебиш-Гмюнде

Германия     48°48′09″N   9°48′09″E
темп.,
°C
ветер,
м/с
пор.,
м/с
влажн.,
%
обл.,
%
осадки,
мм/ч
давл.,
гПа
погр.,
м
4 марта, чт
чт401:00+6ююз117455 0.0 102622
04:00+6юз117391 0.0 102422
07:00+6юз116996 0.0 102322
10:00+9зюз245970 0.0 1021302
13:00+12зсз455549 0.0 10191247
16:00+10зюз467286 0.1 1018978
19:00+6юз369076 0.4 1017159
22:00+6зюз3994100 0.4 1019342
5 марта, пт
пт501:00+5зсз379694 0.6 1019450
04:00+4ссз3795100 1.4 1019479
07:00+3ссз2494100 1.9 1021365
10:00+2ссз3596100 0.3 1023359
13:00+3ссв3487100 0.5 1024523
16:00+3ссв457297 0.3 1025969
19:00+1св377496 0.3 1028579
22:00−2всв3108112 0.0 1031391
6 марта, сб
сб601:00−2в3108210 0.0 1032463
04:00−2в310770 0.0 1032495
07:00−3в410740 0.0 1033505
10:00+1в59520 0.0 1032830
13:00+5в57400 0.0 10311010
16:00+5в47400 0.0 1029993
19:000в35587 0.0 1030115
22:00−2в245827 0.0 103091
7 марта, вс
вс701:00−2вюв226313 0.0 102941
04:00−3вюв22640 0.0 102731
07:00−3вюв12670 0.0 102728
10:00+3ююв12520 0.0 1025428
13:00+6з23472 0.0 1023771
16:00+6зсз234649 0.0 1020662
19:000ссз116830 0.0 102122
22:00−1юв007166 0.0 102221
8 марта, пн
пн801:00−2ю017277 0.0 102221
04:00−2ю0071100 0.0 102121
07:00−2ссв1170100 0.0 102121
10:00+3св1148100 0.0 1021354
13:00+7с1137100 0.0 10211154
16:00+6с2244100 0.0 10201220
19:000св1273100 0.0 102122
22:00−1в117599 0.0 102321